Location: Braden Valley Church
(38.0012°N, 88.6106°W)
Time: 03:34:05
(UTC+00:00)

SJ 16-02 - Pass Details

Date: 08 December 2021
Orbit: 605 x 616 km, 75.0° (Epoch: 21 January)

Event Time Altitude Azimuth Distance (km) Brightness Sun altitude
Rises 12:01:26 0° 228° (SW) 2,851 4.5 -11.0°
Reaches altitude 10° 12:04:04 10° 244° (WSW) 1,950 3.5 -10.5°
Maximum altitude 12:07:29 22° 296° (WNW) 1,332 2.5 -9.9°
Drops below altitude 10° 12:10:54 10° 347° (NNW) 1,958 3.6 -9.3°
Sets 12:13:34 0° 3° (N) 2,866 4.6 -8.8°
